sat.trackr.live / text

‹ back to catalog

STARLINK-32712

NORAD 62433 · 2024-251B

PAYLOAD ACTIVE UNKNOWN

§ Identity

Operator
Country
US
Launch date
2024-12-29
Launch site
AFWTR
Launch vehicle
Mass (kg)
RCS (m²)

Purposes: comms

External: N2YO · Heavens-Above · Gunter

§ Orbital elements

Epoch: 2026-05-24T22:58:57.679392Z

Period
94.10 min
Inclination
53.1593°
Eccentricity
0.0001059
Mean motion
15.30208590 rev/d
Perigee alt
474.5 km
Apogee alt
475.9 km
Semi-major
6,853.3 km
B*
4.7946e-4
RAAN
341.1688°
Arg perigee
86.3016°
Mean anomaly
273.8106°
Rev number
7,962

§ Raw data

STARLINK-327121 62433U 24251B   26144.95761203  .00013871  00000+0  47946-3 0  99942 62433  53.1593 341.1688 0001059  86.3016 273.8106 15.30208590 79620

JSON: /api/v1/satellites/62433 · /tle

For live sub-satellite position, see the globe view (requires WebGL).

§ Visibility from observer

Set your observer location to see the next 7 days of passes ≥ 10°. The values pass through the URL so the page stays shareable.

No JS? Fill the form by hand. The geolocation button needs JavaScript.